Location: Asarope
(8.2500°N, 4.4833°E)
Time: 04:56:40
(UTC+00:00)

GEOS 3 Rocket - Visible Passes

Search period start: 27 September 2020 00:00
Search period end: 07 October 2020 00:00
Orbit: 770 x 849 km, 115.0° (Epoch: 26 September)

Date Brightness Start Highest point End Pass type
(mag) Time Alt. Az. Time Alt. Az. Time Alt. Az.
27 Sep 4.3 05:02:10 10° NE 05:07:25 62° ESE 05:12:33 10° SSW visible
28 Sep 5.7 04:39:09 10° ENE 04:43:38 28° ESE 04:48:02 10° S visible
29 Sep 6.6 04:17:35 10° E 04:19:51 13° ESE 04:22:04 10° SE visible
30 Sep 6.2 18:10:56 10° SSW 18:14:44 21° WSW 18:18:35 10° WNW visible
01 Oct 5.7 05:05:33 10° NE 05:10:12 32° ESE 05:14:47 10° S visible
01 Oct 4.9 17:46:03 10° S 17:50:56 46° WSW 17:55:55 10° NW visible
02 Oct 6.5 04:43:35 10° E 04:46:25 15° ESE 04:49:13 10° SSE visible
03 Oct 6.3 18:37:48 10° SSW 18:41:18 19° WSW 18:44:51 10° WNW visible
04 Oct 5.0 18:12:43 10° S 18:17:30 40° WSW 18:22:23 10° NW visible
05 Oct 3.7 17:48:35 10° SSE 17:53:44 89° WSW 17:59:00 10° NNW visible
06 Oct 6.3 19:04:45 10° SSW 19:07:53 16° WSW 19:11:03 10° W visible
